| time (UTC) | temp C | wind direction | speed KPH | gust KPH | rain 1hr cm | rain 24hr cm | rain mn cm | humidity % | barometer mb |
| 20260510120122 | 6 | 0.0 | 0.0 | 0.00 | 3.15 | 0.86 | 99 | 1022.0 | |
| 20260510115619 | 6 | 0.0 | 0.0 | 0.00 | 3.53 | 0.86 | 99 | 1022.0 | |
| 20260510115118 | 6 | 0.0 | 0.0 | 0.00 | 3.53 | 0.86 | 99 | 1022.0 | |
| 20260510114616 | 6 | 0.0 | 0.0 | 0.00 | 3.53 | 0.86 | 99 | 1022.0 | |
| 20260510114114 | 6 | 0.0 | 0.0 | 0.00 | 3.53 | 0.86 | 99 | 1022.2 | |
| 20260510113612 | 6 | 0.0 | 0.0 | 0.00 | 3.53 | 0.86 | 99 | 1022.4 | |
| 20260510113110 | 6 | 0.0 | 0.0 | 0.00 | 3.53 | 0.86 | 99 | 1022.2 | |
| 20260510112609 | 6 | 0.0 | 0.0 | 0.00 | 3.53 | 0.86 | 99 | 1022.1 | |
| 20260510112107 | 6 | 0.0 | 0.0 | 0.00 | 3.53 | 0.86 | 99 | 1022.2 | |
| 20260510111605 | 6 | 0.0 | 0.0 | 0.00 | 3.53 | 0.86 | 99 | 1022.4 | |
| 20260510111103 | 6 | 0.0 | 0.0 | 0.00 | 3.53 | 0.86 | 99 | 1022.2 | |
| 20260510110602 | 6 | 0.0 | 0.0 | 0.00 | 3.53 | 0.86 | 99 | 1022.0 | |
| 20260510110100 | 6 | 0.0 | 0.0 | 0.00 | 3.53 | 0.86 | 99 | 1021.8 | |
| 20260510105558 | 6 | 0.0 | 0.0 | 0.00 | 3.63 | 0.86 | 99 | 1021.6 | |
| 20260510105056 | 6 | 0.0 | 0.0 | 0.00 | 3.63 | 0.86 | 99 | 1021.9 | |
| 20260510104555 | 6 | 0.0 | 0.0 | 0.00 | 3.63 | 0.86 | 99 | 1021.8 | |
| 20260510104053 | 6 | 0.0 | 0.0 | 0.00 | 3.63 | 0.86 | 99 | 1021.6 | |
| 20260510103551 | 6 | 0.0 | 0.0 | 0.00 | 3.63 | 0.86 | 99 | 1021.6 | |
| 20260510103050 | 6 | 0.0 | 0.0 | 0.00 | 3.63 | 0.86 | 99 | 1021.5 | |
| 20260510102548 | 6 | 0.0 | 0.0 | 0.00 | 3.63 | 0.86 | 99 | 1021.3 | |
| 20260510102046 | 6 | 0.0 | 0.0 | 0.00 | 3.63 | 0.86 | 99 | 1021.0 | |
| 20260510101544 | 6 | 0.0 | 0.0 | 0.00 | 3.63 | 0.86 | 99 | 1021.3 | |
| 20260510101042 | 6 | 0.0 | 0.0 | 0.00 | 3.63 | 0.86 | 99 | 1021.1 | |
| 20260510100541 | 6 | 0.0 | 0.0 | 0.00 | 3.63 | 0.86 | 99 | 1020.8 | |
| 20260510100039 | 6 | 0.0 | 0.0 | 0.00 | 3.63 | 0.86 | 99 | 1020.7 | |
| 20260510095537 | 6 | 0.0 | 0.0 | 0.00 | 3.84 | 0.86 | 99 | 1020.7 | |
| 20260510095037 | 6 | 0.0 | 0.0 | 0.00 | 3.84 | 0.86 | 99 | 1020.6 | |
| 20260510094535 | 6 | 0.0 | 0.0 | 0.00 | 3.84 | 0.86 | 99 | 1020.3 | |
| 20260510094033 | 6 | 0.0 | 0.0 | 0.00 | 3.84 | 0.86 | 99 | 1020.4 | |
| 20260510093532 | 6 | 0.0 | 0.0 | 0.00 | 3.84 | 0.86 | 99 | 1020.3 | |
| 20260510093029 | 6 | 0.0 | 0.0 | 0.00 | 3.84 | 0.86 | 99 | 1020.5 | |
| 20260510092528 | 6 | 0.0 | 0.0 | 0.00 | 3.84 | 0.86 | 99 | 1020.3 | |
| 20260510092026 | 6 | 0.0 | 0.0 | 0.00 | 3.84 | 0.86 | 99 | 1020.3 | |
| 20260510091525 | 6 | 0.0 | 0.0 | 0.00 | 3.84 | 0.86 | 99 | 1020.3 | |
| 20260510091024 | 6 | 0.0 | 0.0 | 0.00 | 3.84 | 0.86 | 99 | 1020.5 | |
| 20260510090522 | 6 | 0.0 | 0.0 | 0.00 | 3.84 | 0.86 | 99 | 1020.3 | |
| 20260510090021 | 6 | 0.0 | 0.0 | 0.00 | 3.84 | 0.86 | 99 | 1020.3 | |
| 20260510085520 | 6 | 0.0 | 0.0 | 0.00 | 3.84 | 0.86 | 99 | 1020.1 | |
| 20260510085018 | 6 | 0.0 | 0.0 | 0.00 | 3.84 | 0.86 | 99 | 1020.0 | |
| 20260510084516 | 6 | 0.0 | 0.0 | 0.03 | 3.84 | 0.86 | 99 | 1019.9 | |
| 20260510084014 | 6 | 0.0 | 0.0 | 0.03 | 3.84 | 0.86 | 99 | 1020.0 | |
| 20260510083513 | 6 | 0.0 | 0.0 | 0.03 | 3.84 | 0.86 | 99 | 1019.9 | |
| 20260510083011 | 6 | 0.0 | 0.0 | 0.03 | 3.84 | 0.86 | 99 | 1019.8 | |
| 20260510082509 | 6 | 0.0 | 0.0 | 0.03 | 3.84 | 0.86 | 99 | 1019.6 | |
| 20260510082007 | 6 | 0.0 | 0.0 | 0.03 | 3.84 | 0.86 | 99 | 1019.7 | |
| 20260510081506 | 6 | 0.0 | 0.0 | 0.05 | 3.84 | 0.86 | 99 | 1019.7 | |
| 20260510081004 | 6 | 0.0 | 0.0 | 0.05 | 3.84 | 0.86 | 99 | 1019.7 | |
| 20260510080502 | 6 | 0.0 | 0.0 | 0.05 | 3.84 | 0.86 | 99 | 1019.8 | |
| 20260510080000 | 6 | 0.0 | 0.0 | 0.05 | 3.84 | 0.86 | 99 | 1019.8 | |
| 20260510075458 | 6 | 0.0 | 0.0 | 0.10 | 3.84 | 0.86 | 99 | 1019.8 | |
| 20260510074957 | 6 | 0.0 | 0.0 | 0.10 | 3.84 | 0.86 | 99 | 1020.0 | |
| 20260510074455 | 6 | 0.0 | 0.0 | 0.10 | 3.84 | 0.86 | 99 | 1020.0 | |
| 20260510073954 | 6 | 0.0 | 0.0 | 0.10 | 3.81 | 0.84 | 99 | 1019.8 | |
| 20260510073452 | 6 | 0.0 | 0.0 | 0.10 | 3.81 | 0.84 | 99 | 1020.0 | |
| 20260510072950 | 6 | 0.0 | 0.0 | 0.10 | 3.81 | 0.84 | 99 | 1020.0 | |
| 20260510072448 | 6 | 0.0 | 0.0 | 0.10 | 3.81 | 0.84 | 99 | 1020.0 | |
| 20260510071947 | 6 | 0.0 | 0.0 | 0.15 | 3.81 | 0.84 | 99 | 1020.0 | |
| 20260510071446 | 6 | 0.0 | 0.0 | 0.13 | 3.78 | 0.81 | 99 | 1020.0 | |
| 20260510070944 | 6 | 0.0 | 0.0 | 0.18 | 3.78 | 0.81 | 99 | 1019.9 | |
| 20260510070443 | 6 | 0.0 | 0.0 | 0.18 | 3.78 | 0.81 | 99 | 1020.0 | |
| 20260510065940 | 6 | 0.0 | 0.0 | 0.18 | 3.76 | 0.79 | 99 | 1019.8 | |
| 20260510065439 | 6 | 0.0 | 0.0 | 0.15 | 3.73 | 0.79 | 99 | 1020.1 | |
| 20260510064937 | 6 | 0.0 | 0.0 | 0.20 | 3.73 | 0.79 | 99 | 1020.2 | |
| 20260510064435 | 6 | 0.0 | 0.0 | 0.20 | 3.73 | 0.79 | 99 | 1020.3 | |
| 20260510063933 | 6 | 0.0 | 0.0 | 0.25 | 3.73 | 0.79 | 99 | 1020.2 | |
| 20260510063432 | 6 | 0.0 | 0.0 | 0.25 | 3.73 | 0.79 | 99 | 1020.2 | |
| 20260510062930 | 6 | 0.0 | 0.0 | 0.28 | 3.71 | 0.76 | 99 | 1020.0 | |
| 20260510062428 | 6 | 0.0 | 0.0 | 0.28 | 3.71 | 0.76 | 99 | 1019.9 | |
| 20260510061926 | 6 | 0.0 | 0.0 | 0.30 | 3.71 | 0.76 | 99 | 1019.9 | |
| 20260510061424 | 7 | 0.0 | 0.0 | 0.28 | 3.68 | 0.74 | 99 | 1019.8 | |
| 20260510060922 | 7 | 0.0 | 0.0 | 0.28 | 3.66 | 0.71 | 99 | 1019.9 | |
| 20260510060421 | 6 | 0.0 | 0.0 | 0.25 | 3.63 | 0.69 | 99 | 1019.8 | |
| 20260510055919 | 6 | 0.0 | 0.0 | 0.25 | 3.61 | 0.66 | 99 | 1019.4 | |
| 20260510055417 | 6 | 0.0 | 0.0 | 0.25 | 3.61 | 0.66 | 99 | 1019.2 | |
| 20260510054916 | 6 | 0.0 | 0.0 | 0.28 | 3.58 | 0.64 | 99 | 1019.5 | |
| 20260510054414 | 6 | 0.0 | 0.0 | 0.25 | 3.56 | 0.61 | 99 | 1020.0 | |
| 20260510053913 | 6 | 0.0 | 0.0 | 0.28 | 3.53 | 0.58 | 99 | 1020.3 | |
| 20260510053411 | 6 | 0.0 | 0.0 | 0.25 | 3.51 | 0.56 | 99 | 1020.3 | |
| 20260510052910 | 6 | 0.0 | 0.0 | 0.23 | 3.45 | 0.51 | 99 | 1020.2 | |
| 20260510052408 | 6 | 0.0 | 0.0 | 0.20 | 3.43 | 0.48 | 99 | 1020.4 | |
| 20260510051906 | 6 | 0.0 | 0.0 | 0.25 | 3.43 | 0.48 | 99 | 1020.0 | |
| 20260510051405 | 6 | 0.0 | 0.0 | 0.23 | 3.40 | 0.46 | 99 | 1019.8 | |
| 20260510050903 | 6 | 0.0 | 0.0 | 0.28 | 3.40 | 0.46 | 99 | 1019.8 | |
| 20260510050402 | 6 | 0.0 | 0.0 | 0.28 | 3.40 | 0.46 | 99 | 1019.9 | |
| 20260510045900 | 6 | 0.0 | 0.0 | 0.30 | 3.38 | 0.43 | 99 | 1019.8 | |
| 20260510045358 | 6 | 0.0 | 0.0 | 0.30 | 3.38 | 0.43 | 99 | 1019.6 | |
| 20260510044856 | 6 | 0.0 | 0.0 | 0.33 | 3.35 | 0.41 | 99 | 1019.6 | |
| 20260510044354 | 6 | 0.0 | 0.0 | 0.30 | 3.33 | 0.38 | 99 | 1019.7 | |
| 20260510043853 | 6 | 0.0 | 0.0 | 0.30 | 3.30 | 0.36 | 99 | 1019.9 | |
| 20260510043351 | 6 | 0.0 | 0.0 | 0.28 | 3.28 | 0.33 | 99 | 1020.2 | |
| 20260510042849 | 6 | 0.0 | 0.0 | 0.28 | 3.25 | 0.30 | 99 | 1020.2 | |
| 20260510042347 | 6 | 0.0 | 0.0 | 0.25 | 3.23 | 0.28 | 99 | 1020.2 | |
| 20260510041846 | 6 | 0.0 | 0.0 | 0.25 | 3.20 | 0.25 | 99 | 1020.3 | |
| 20260510041344 | 6 | 0.0 | 0.0 | 0.25 | 3.20 | 0.25 | 99 | 1020.2 | |
| 20260510040842 | 6 | 0.0 | 0.0 | 0.20 | 3.15 | 0.20 | 99 | 1020.4 | |
| 20260510040341 | 6 | 0.0 | 0.0 | 0.20 | 3.15 | 0.20 | 99 | 1020.3 | |
| 20260510035839 | 6 | 0.0 | 0.0 | 0.18 | 3.17 | 0.18 | 99 | 1020.4 | |
| 20260510035337 | 6 | 0.0 | 0.0 | 0.15 | 3.15 | 0.15 | 99 | 1020.4 | |
| 20260510034836 | 6 | 0.0 | 0.0 | 0.15 | 3.12 | 0.13 | 99 | 1020.4 | |
| 20260510034334 | 6 | 0.0 | 0.0 | 0.13 | 3.10 | 0.10 | 99 | 1020.6 | |
| 20260510033832 | 6 | 0.0 | 0.0 | 0.15 | 3.07 | 0.08 | 99 | 1020.5 | |
| 20260510033331 | 6 | 0.0 | 0.0 | 0.15 | 3.07 | 0.08 | 99 | 1020.5 | |
| 20260510032829 | 6 | 0.0 | 0.0 | 0.15 | 3.05 | 0.05 | 99 | 1020.6 | |
| 20260510032327 | 6 | 0.0 | 0.0 | 0.15 | 3.05 | 0.05 | 99 | 1020.6 | |
| 20260510031825 | 6 | 0.0 | 0.0 | 0.13 | 3.02 | 0.03 | 99 | 1020.5 | |
| 20260510031323 | 6 | 0.0 | 0.0 | 0.10 | 3.00 | 0.00 | 99 | 1020.3 | |
| 20260510030822 | 6 | 0.0 | 0.0 | 0.13 | 3.00 | 0.00 | 99 | 1020.5 | |
| 20260510030320 | 6 | 0.0 | 0.0 | 0.13 | 3.00 | 0.00 | 99 | 1020.7 | |
| 20260510025818 | 6 | 0.0 | 0.0 | 0.15 | 3.45 | 3.00 | 99 | 1020.7 | |
| 20260510025316 | 6 | 0.0 | 0.0 | 0.15 | 3.45 | 3.00 | 99 | 1020.7 | |
| 20260510024814 | 6 | 0.0 | 0.0 | 0.20 | 3.45 | 3.00 | 99 | 1020.8 | |
| 20260510024313 | 6 | 0.0 | 0.0 | 0.20 | 3.45 | 3.00 | 99 | 1021.0 | |
| 20260510023811 | 6 | 0.0 | 0.0 | 0.23 | 3.43 | 2.97 | 99 | 1021.1 | |
| 20260510023309 | 6 | 0.0 | 0.0 | 0.20 | 3.40 | 2.95 | 99 | 1021.2 | |
| 20260510022808 | 6 | 0.0 | 0.0 | 0.23 | 3.38 | 2.92 | 99 | 1021.2 | |
| 20260510022307 | 6 | 0.0 | 0.0 | 0.23 | 3.38 | 2.92 | 99 | 1021.1 | |
| 20260510021805 | 6 | 0.0 | 0.0 | 0.25 | 3.35 | 2.90 | 99 | 1021.3 | |
| 20260510021303 | 6 | 0.0 | 0.0 | 0.25 | 3.35 | 2.90 | 99 | 1021.3 | |
| 20260510020801 | 6 | 0.0 | 0.0 | 0.30 | 3.35 | 2.90 | 99 | 1021.4 | |
| 20260510020259 | 6 | 0.0 | 0.0 | 0.28 | 3.33 | 2.87 | 99 | 1021.4 | |
| 20260510015757 | 6 | 0.0 | 0.0 | 0.33 | 4.06 | 2.87 | 99 | 1021.4 | |
| 20260510015255 | 6 | 0.0 | 0.0 | 0.30 | 4.04 | 2.84 | 99 | 1021.3 | |
| 20260510014753 | 6 | 0.0 | 0.0 | 0.30 | 4.04 | 2.84 | 99 | 1021.4 | |
| 20260510014251 | 6 | 0.0 | 0.0 | 0.28 | 4.01 | 2.82 | 99 | 1021.7 | |
| 20260510013749 | 6 | 0.0 | 0.0 | 0.28 | 3.96 | 2.77 | 99 | 1021.8 | |
| 20260510013247 | 6 | 0.0 | 0.0 | 0.25 | 3.96 | 2.74 | 99 | 1021.9 | |
| 20260510012745 | 6 | 0.0 | 0.0 | 0.30 | 3.96 | 2.74 | 99 | 1022.1 | |
| 20260510012242 | 6 | 0.0 | 0.0 | 0.25 | 3.91 | 2.69 | 99 | 1022.1 | |
| 20260510011741 | 7 | 0.0 | 0.0 | 0.23 | 3.89 | 2.67 | 99 | 1021.6 | |
| 20260510011239 | 7 | 0.0 | 0.0 | 0.20 | 3.86 | 2.64 | 99 | 1021.5 | |
| 20260510010737 | 7 | 0.0 | 0.0 | 0.20 | 3.86 | 2.64 | 99 | 1021.2 | |
| 20260510010234 | 7 | 0.0 | 0.0 | 0.18 | 3.84 | 2.62 | 99 | 1021.1 | |
| 20260510005732 | 7 | 0.0 | 0.0 | 0.15 | 4.14 | 2.59 | 99 | 1021.1 | |
| 20260510005230 | 7 | 0.0 | 0.0 | 0.13 | 4.11 | 2.57 | 99 | 1020.9 | |
| 20260510004729 | 7 | 0.0 | 0.0 | 0.13 | 4.09 | 2.54 | 99 | 1020.7 | |
| 20260510004227 | 7 | 0.0 | 0.0 | 0.13 | 4.09 | 2.54 | 99 | 1020.4 | |
| 20260510003724 | 7 | 0.0 | 0.0 | 0.10 | 4.06 | 2.51 | 99 | 1020.4 | |
| 20260510003222 | 7 | 0.0 | 0.0 | 0.08 | 4.04 | 2.49 | 99 | 1020.5 | |
| 20260510002720 | 7 | 0.0 | 0.0 | 0.08 | 4.01 | 2.46 | 99 | 1020.5 | |
| 20260510002218 | 7 | 0.0 | 0.0 | 0.05 | 3.99 | 2.44 | 99 | 1020.5 | |
| 20260510001716 | 7 | 0.0 | 0.0 | 0.08 | 3.99 | 2.44 | 99 | 1020.5 | |
| 20260510001214 | 7 | 0.0 | 0.0 | 0.08 | 3.99 | 2.44 | 99 | 1020.5 | |
| 20260510000712 | 7 | 0.0 | 0.0 | 0.08 | 3.99 | 2.44 | 99 | 1020.5 | |
| 20260510000211 | 7 | 0.0 | 0.0 | 0.08 | 3.99 | 2.44 | 99 | 1020.5 | |
| 20260509235708 | 7 | 0.0 | 0.0 | 0.08 | 4.32 | 2.44 | 99 | 1020.4 | |
| 20260509235206 | 7 | 0.0 | 0.0 | 0.08 | 4.32 | 2.44 | 99 | 1020.3 | |
| 20260509234704 | 7 | 0.0 | 0.0 | 0.08 | 4.29 | 2.41 | 99 | 1020.3 | |
| 20260509234202 | 7 | 0.0 | 0.0 | 0.08 | 4.29 | 2.41 | 99 | 1020.1 | |
| 20260509233700 | 7 | 0.0 | 0.0 | 0.08 | 4.29 | 2.41 | 99 | 1020.1 | |
| 20260509233158 | 7 | 0.0 | 0.0 | 0.08 | 4.29 | 2.41 | 99 | 1020.0 | |
| 20260509232656 | 7 | 0.0 | 0.0 | 0.10 | 4.29 | 2.41 | 99 | 1019.8 | |
| 20260509232154 | 7 | 0.0 | 0.0 | 0.10 | 4.29 | 2.41 | 99 | 1019.7 | |
| 20260509231652 | 7 | 0.0 | 0.0 | 0.15 | 4.27 | 2.39 | 99 | 1019.8 | |
| 20260509231150 | 7 | 0.0 | 0.0 | 0.13 | 4.24 | 2.39 | 99 | 1020.1 | |
| 20260509230648 | 7 | 0.0 | 0.0 | 0.25 | 4.24 | 2.39 | 99 | 1020.1 | |
| 20260509230146 | 8 | 0.0 | 0.0 | 0.25 | 4.24 | 2.39 | 99 | 1020.3 | |
| 20260509225644 | 8 | 0.0 | 0.0 | 0.36 | 4.34 | 2.39 | 99 | 1020.0 | |
| 20260509225142 | 8 | 0.0 | 0.0 | 0.36 | 4.34 | 2.39 | 99 | 1019.9 | |
| 20260509224641 | 8 | 0.0 | 0.0 | 0.38 | 4.32 | 2.36 | 99 | 1020.0 | |
| 20260509224139 | 8 | 0.0 | 0.0 | 0.38 | 4.32 | 2.36 | 99 | 1019.8 | |
| 20260509223637 | 8 | 0.0 | 0.0 | 0.43 | 4.32 | 2.36 | 99 | 1019.5 | |
| 20260509223135 | 8 | 0.0 | 0.0 | 0.43 | 4.32 | 2.36 | 99 | 1018.8 | |
| 20260509222634 | 8 | 0.0 | 0.0 | 0.46 | 4.32 | 2.36 | 99 | 1018.8 | |
| 20260509222131 | 8 | 0.0 | 0.0 | 0.43 | 4.29 | 2.34 | 99 | 1018.7 | |
| 20260509221630 | 9 | 0.0 | 0.0 | 0.46 | 4.27 | 2.31 | 99 | 1018.6 | |
| 20260509221128 | 9 | 0.0 | 0.0 | 0.41 | 4.22 | 2.26 | 99 | 1018.4 | |
| 20260509220626 | 9 | 0.0 | 0.0 | 0.38 | 4.17 | 2.21 | 99 | 1018.7 | |
| 20260509220124 | 9 | 0.0 | 0.0 | 0.30 | 4.09 | 2.13 | 99 | 1018.7 | |
| 20260509215622 | 9 | 0.0 | 0.0 | 0.28 | 4.09 | 2.08 | 99 | 1018.9 | |
| 20260509215120 | 9 | 0.0 | 0.0 | 0.25 | 4.06 | 2.06 | 99 | 1018.7 | |
| 20260509214618 | 9 | 0.0 | 0.0 | 0.23 | 4.01 | 2.01 | 99 | 1018.6 | |
| 20260509214116 | 9 | 0.0 | 0.0 | 0.20 | 3.99 | 1.98 | 99 | 1018.6 | |
| 20260509213614 | 9 | 0.0 | 0.0 | 0.20 | 3.96 | 1.96 | 99 | 1018.5 | |
| 20260509213112 | 9 | 0.0 | 0.0 | 0.20 | 3.96 | 1.96 | 99 | 1018.4 | |
| 20260509212610 | 10 | 0.0 | 0.0 | 0.18 | 3.96 | 1.93 | 99 | 1018.3 | |
| 20260509212109 | 9 | 0.0 | 0.0 | 0.15 | 3.94 | 1.91 | 99 | 1018.3 | |
| 20260509211607 | 10 | 0.0 | 0.0 | 0.13 | 3.91 | 1.88 | 99 | 1018.4 | |
| 20260509211105 | 10 | 0.0 | 0.0 | 0.10 | 3.89 | 1.85 | 99 | 1018.4 | |
| 20260509210603 | 10 | 0.0 | 0.0 | 0.13 | 3.89 | 1.85 | 99 | 1018.2 | |
| 20260509210100 | 10 | 0.0 | 0.0 | 0.10 | 3.86 | 1.83 | 99 | 1018.3 | |
| 20260509205559 | 10 | 0.0 | 0.0 | 0.08 | 3.84 | 1.80 | 99 | 1018.1 | |
| 20260509205057 | 10 | 0.0 | 0.0 | 0.08 | 3.84 | 1.80 | 99 | 1018.0 | |
| 20260509204556 | 10 | 0.0 | 0.0 | 0.08 | 3.81 | 1.78 | 99 | 1018.1 | |
| 20260509204054 | 10 | 0.0 | 0.0 | 0.08 | 3.81 | 1.78 | 99 | 1018.0 | |
| 20260509203551 | 10 | 0.0 | 0.0 | 0.05 | 3.78 | 1.75 | 99 | 1017.8 | |
| 20260509203050 | 10 | 0.0 | 0.0 | 0.05 | 3.78 | 1.75 | 99 | 1017.5 | |
| 20260509202548 | 10 | 0.0 | 0.0 | 0.05 | 3.78 | 1.75 | 99 | 1017.7 | |
| 20260509202046 | 10 | 0.0 | 0.0 | 0.05 | 3.78 | 1.75 | 99 | 1017.6 | |
| 20260509201544 | 10 | 0.0 | 0.0 | 0.05 | 3.78 | 1.75 | 99 | 1017.5 | |
| 20260509201042 | 10 | 0.0 | 0.0 | 0.05 | 3.78 | 1.75 | 99 | 1017.5 | |
| 20260509200541 | 10 | 0.0 | 0.0 | 0.05 | 3.78 | 1.75 | 99 | 1017.5 | |
| 20260509200038 | 10 | 0.0 | 0.0 | 0.05 | 3.78 | 1.75 | 99 | 1017.6 | |
| 20260509195536 | 10 | 0.0 | 0.0 | 0.03 | 3.81 | 1.73 | 99 | 1017.5 | |
| 20260509195035 | 10 | 0.0 | 0.0 | 0.03 | 3.81 | 1.73 | 99 | 1017.4 | |
| 20260509194532 | 10 | 0.0 | 0.0 | 0.03 | 3.81 | 1.73 | 99 | 1017.6 | |
| 20260509194031 | 10 | 0.0 | 0.0 | 0.00 | 3.78 | 1.70 | 99 | 1017.7 | |
| 20260509193529 | 10 | 0.0 | 0.0 | 0.00 | 3.78 | 1.70 | 99 | 1017.6 | |
| 20260509193027 | 10 | 0.0 | 0.0 | 0.00 | 3.78 | 1.70 | 99 | 1017.5 | |
| 20260509192525 | 10 | 0.0 | 0.0 | 0.00 | 3.78 | 1.70 | 99 | 1017.1 | |
| 20260509192023 | 10 | 0.0 | 0.0 | 0.00 | 3.78 | 1.70 | 99 | 1016.9 | |
| 20260509191521 | 10 | 0.0 | 0.0 | 0.00 | 3.78 | 1.70 | 99 | 1016.8 | |
| 20260509191019 | 10 | 0.0 | 0.0 | 0.00 | 3.78 | 1.70 | 99 | 1016.6 | |
| 20260509190517 | 10 | 0.0 | 0.0 | 0.03 | 3.78 | 1.70 | 99 | 1016.5 | |
| 20260509190015 | 10 | 0.0 | 0.0 | 0.03 | 3.78 | 1.70 | 99 | 1016.4 | |
| 20260509185513 | 11 | 0.0 | 0.0 | 0.03 | 3.94 | 1.70 | 99 | 1016.3 | |
| 20260509185011 | 11 | 0.0 | 0.0 | 0.03 | 3.94 | 1.70 | 99 | 1016.2 | |
| 20260509184510 | 11 | 0.0 | 0.0 | 0.03 | 3.94 | 1.70 | 99 | 1016.1 | |
| 20260509184008 | 12 | 0.0 | 0.0 | 0.03 | 3.94 | 1.70 | 99 | 1016.0 | |
| 20260509183506 | 12 | 0.0 | 0.0 | 0.03 | 3.94 | 1.70 | 99 | 1015.8 | |
| 20260509183004 | 13 | 0.0 | 0.0 | 0.03 | 3.94 | 1.70 | 99 | 1015.6 | |
| 20260509182502 | 13 | 0.0 | 0.0 | 0.03 | 3.94 | 1.70 | 99 | 1015.3 | |
| 20260509182000 | 14 | 0.0 | 0.0 | 0.03 | 3.94 | 1.70 | 99 | 1015.4 | |
| 20260509181458 | 15 | 0.0 | 0.0 | 0.03 | 3.94 | 1.70 | 99 | 1015.2 | |
| 20260509180956 | 16 | 0.0 | 0.0 | 0.05 | 3.94 | 1.70 | 99 | 1015.1 | |
| 20260509180455 | 16 | 0.0 | 0.0 | 0.03 | 3.91 | 1.68 | 99 | 1015.1 | |
| 20260509175952 | 16 | 0.0 | 0.0 | 0.03 | 3.94 | 1.68 | 99 | 1015.0 | |
| 20260509175451 | 16 | 0.0 | 0.0 | 0.03 | 3.94 | 1.68 | 99 | 1015.2 | |
| 20260509174949 | 16 | 0.0 | 0.0 | 0.05 | 3.94 | 1.68 | 99 | 1015.1 | |
| 20260509174447 | 16 | 0.0 | 0.0 | 0.05 | 3.94 | 1.68 | 99 | 1015.1 | |
| 20260509173945 | 16 | 0.0 | 0.0 | 0.05 | 3.94 | 1.68 | 99 | 1015.0 | |
| 20260509173443 | 16 | 0.0 | 0.0 | 0.05 | 3.94 | 1.68 | 99 | 1015.0 | |
| 20260509172941 | 16 | 0.0 | 0.0 | 0.08 | 3.94 | 1.68 | 99 | 1015.1 | |
| 20260509172439 | 16 | 0.0 | 0.0 | 0.08 | 3.94 | 1.68 | 99 | 1015.0 | |
| 20260509171937 | 16 | 0.0 | 0.0 | 0.10 | 3.94 | 1.68 | 99 | 1014.6 | |
| 20260509171435 | 16 | 0.0 | 0.0 | 0.10 | 3.94 | 1.68 | 99 | 1014.7 | |
| 20260509170933 | 16 | 0.0 | 0.0 | 0.13 | 3.94 | 1.68 | 99 | 1014.6 | |
| 20260509170431 | 16 | 0.0 | 0.0 | 0.13 | 3.94 | 1.68 | 99 | 1014.9 | |
| 20260509165929 | 16 | 0.0 | 0.0 | 0.10 | 4.17 | 1.65 | 99 | 1015.1 | |
| 20260509165427 | 16 | 0.0 | 0.0 | 0.10 | 4.17 | 1.65 | 99 | 1015.2 | |
| 20260509164925 | 16 | 0.0 | 0.0 | 0.08 | 4.14 | 1.63 | 99 | 1015.3 | |
| 20260509164423 | 16 | 0.0 | 0.0 | 0.08 | 4.14 | 1.63 | 99 | 1015.3 | |
| 20260509163922 | 16 | 0.0 | 0.0 | 0.08 | 4.14 | 1.63 | 99 | 1015.4 | |
| 20260509163420 | 16 | 0.0 | 0.0 | 0.08 | 4.14 | 1.63 | 99 | 1015.4 | |
| 20260509162918 | 16 | 0.0 | 0.0 | 0.10 | 4.14 | 1.63 | 99 | 1015.3 | |
| 20260509162416 | 16 | 0.0 | 0.0 | 0.08 | 4.11 | 1.60 | 99 | 1015.3 | |
| 20260509161915 | 16 | 0.0 | 0.0 | 0.05 | 4.09 | 1.57 | 99 | 1015.4 | |
| 20260509161413 | 16 | 0.0 | 0.0 | 0.05 | 4.09 | 1.57 | 99 | 1015.5 | |
| 20260509160910 | 16 | 0.0 | 0.0 | 0.08 | 4.09 | 1.57 | 99 | 1015.6 | |
| 20260509160408 | 16 | 0.0 | 0.0 | 0.05 | 4.06 | 1.55 | 99 | 1015.6 | |
| 20260509155906 | 16 | 0.0 | 0.0 | 0.05 | 4.11 | 1.55 | 99 | 1015.5 | |
| 20260509155405 | 16 | 0.0 | 0.0 | 0.05 | 4.11 | 1.55 | 99 | 1015.5 | |
| 20260509154903 | 16 | 0.0 | 0.0 | 0.05 | 4.11 | 1.55 | 99 | 1015.5 | |
| 20260509154401 | 16 | 0.0 | 0.0 | 0.05 | 4.11 | 1.55 | 99 | 1015.5 | |
| 20260509153859 | 17 | 0.0 | 0.0 | 0.05 | 4.11 | 1.55 | 99 | 1015.3 | |
| 20260509153357 | 17 | 0.0 | 0.0 | 0.05 | 4.11 | 1.55 | 99 | 1015.3 | |
| 20260509152855 | 17 | 0.0 | 0.0 | 0.05 | 4.11 | 1.55 | 99 | 1015.3 | |
| 20260509152353 | 16 | 0.0 | 0.0 | 0.03 | 4.09 | 1.52 | 99 | 1015.4 | |
| 20260509151851 | 16 | 0.0 | 0.0 | 0.03 | 4.09 | 1.52 | 99 | 1015.4 | |
| 20260509151349 | 16 | 0.0 | 0.0 | 0.03 | 4.09 | 1.52 | 99 | 1015.4 | |
| 20260509150847 | 16 | 0.0 | 0.0 | 0.05 | 4.09 | 1.52 | 99 | 1015.6 | |
| 20260509150346 | 16 | 0.0 | 0.0 | 0.05 | 4.09 | 1.52 | 99 | 1015.5 | |
| 20260509145844 | 16 | 0.0 | 0.0 | 0.03 | 4.06 | 1.50 | 99 | 1015.6 | |
| 20260509145342 | 16 | 0.0 | 0.0 | 0.03 | 4.06 | 1.50 | 99 | 1015.7 | |
| 20260509144840 | 16 | 0.0 | 0.0 | 0.08 | 4.06 | 1.50 | 99 | 1015.7 | |
| 20260509144338 | 16 | 0.0 | 0.0 | 0.08 | 4.06 | 1.50 | 99 | 1015.8 | |
| 20260509143836 | 16 | 0.0 | 0.0 | 0.10 | 4.06 | 1.50 | 99 | 1016.0 | |
| 20260509143334 | 16 | 0.0 | 0.0 | 0.10 | 4.06 | 1.50 | 99 | 1016.1 | |
| 20260509142832 | 16 | 0.0 | 0.0 | 0.18 | 4.06 | 1.50 | 99 | 1016.0 | |
| 20260509142330 | 16 | 0.0 | 0.0 | 0.18 | 4.06 | 1.50 | 99 | 1016.0 | |
| 20260509141828 | 16 | 0.0 | 0.0 | 0.23 | 4.06 | 1.50 | 99 | 1016.0 | |
| 20260509141329 | 16 | 0.0 | 0.0 | 0.23 | 4.06 | 1.50 | 99 | 1016.0 | |
| 20260509140824 | 16 | 0.0 | 0.0 | 0.25 | 4.06 | 1.50 | 99 | 1016.1 | |
| 20260509140322 | 16 | 0.0 | 0.0 | 0.23 | 4.04 | 1.47 | 99 | 1016.2 | |
| 20260509135820 | 16 | 0.0 | 0.0 | 0.25 | 4.04 | 1.47 | 99 | 1016.2 | |
| 20260509135318 | 16 | 0.0 | 0.0 | 0.25 | 4.04 | 1.47 | 99 | 1016.2 | |
| 20260509134816 | 16 | 0.0 | 0.0 | 0.33 | 4.01 | 1.45 | 99 | 1016.2 | |
| 20260509134314 | 16 | 0.0 | 0.0 | 0.33 | 4.01 | 1.45 | 99 | 1016.3 | |
| 20260509133812 | 16 | 0.0 | 0.0 | 0.41 | 3.96 | 1.40 | 99 | 1016.5 | |
| 20260509133310 | 16 | 0.0 | 0.0 | 0.41 | 3.96 | 1.40 | 99 | 1016.6 | |
| 20260509132808 | 16 | 0.0 | 0.0 | 0.48 | 3.96 | 1.37 | 99 | 1016.6 | |
| 20260509132307 | 16 | 0.0 | 0.0 | 0.46 | 3.94 | 1.35 | 99 | 1016.6 | |
| 20260509131805 | 16 | 0.0 | 0.0 | 0.51 | 3.91 | 1.32 | 99 | 1016.7 | |
| 20260509131303 | 16 | 0.0 | 0.0 | 0.48 | 3.89 | 1.30 | 99 | 1016.9 | |
| 20260509130801 | 16 | 0.0 | 0.0 | 0.56 | 3.86 | 1.27 | 99 | 1017.0 | |
| 20260509130259 | 16 | 0.0 | 0.0 | 0.53 | 3.84 | 1.24 | 99 | 1016.8 | |
| 20260509125757 | 16 | 0.0 | 0.0 | 0.64 | 3.84 | 1.24 | 99 | 1016.7 | |
| 20260509125255 | 15 | 0.0 | 0.0 | 0.64 | 3.84 | 1.24 | 99 | 1016.6 | |
| 20260509124753 | 15 | 0.0 | 0.0 | 0.66 | 3.78 | 1.19 | 99 | 1016.6 | |
| 20260509124252 | 15 | 0.0 | 0.0 | 0.61 | 3.73 | 1.14 | 99 | 1016.9 | |
| 20260509123750 | 15 | 0.0 | 0.0 | 0.64 | 3.68 | 1.09 | 99 | 1017.3 | |
| 20260509123248 | 15 | 0.0 | 0.0 | 0.58 | 3.63 | 1.04 | 99 | 1017.2 | |
| 20260509122746 | 15 | 0.0 | 0.0 | 0.56 | 3.56 | 0.97 | 99 | 1017.1 | |
| 20260509122244 | 14 | 0.0 | 0.0 | 0.53 | 3.53 | 0.94 | 99 | 1017.1 | |
| 20260509121742 | 13 | 0.0 | 0.0 | 0.51 | 3.48 | 0.89 | 99 | 1017.2 | |
| 20260509121240 | 13 | 0.0 | 0.0 | 0.46 | 3.43 | 0.84 | 99 | 1017.2 | |
| 20260509120738 | 13 | 0.0 | 0.0 | 0.46 | 3.38 | 0.79 | 99 | 1017.0 |